This is the latest recevied weather packets stored in our database for station/object OK1KZE-6. If no packets are shown the sender has not sent any weather packets the latest 10 day(s).
| Time | Temp. | Humidity | Pressure | Rain* | Wind** | Luminosity | Snow |
|---|---|---|---|---|---|---|---|
| 1777944007 | 15.56° C | 73% | 1011.7 hPa | - | - | - | - |
| 1777943708 | 15.56° C | 73% | 1012 hPa | - | - | - | - |
| 1777943408 | 15.56° C | 72% | 1011.9 hPa | - | - | - | - |
| 1777943108 | 15° C | 74% | 1012 hPa | - | - | - | - |
| 1777942807 | 15.56° C | 72% | 1011.8 hPa | - | - | - | - |
| 1777942508 | 15.56° C | 71% | 1011.9 hPa | - | - | - | - |
| 1777942209 | 15.56° C | 72% | 1012.1 hPa | - | - | - | - |
| 1777941908 | 15° C | 74% | 1012.1 hPa | - | - | - | - |
| 1777941606 | 15.56° C | 73% | 1012.2 hPa | - | - | - | - |
| 1777941308 | 15° C | 74% | 1012.1 hPa | - | - | - | - |
| 1777941007 | 15° C | 75% | 1012.3 hPa | - | - | - | - |
| 1777940707 | 15° C | 74% | 1012.1 hPa | - | - | - | - |
| 1777940407 | 15° C | 75% | 1012.3 hPa | - | - | - | - |
| 1777940108 | 14.44° C | 79% | 1012.3 hPa | - | - | - | - |
| 1777939809 | 15° C | 75% | 1012.1 hPa | - | - | - | - |
| 1777939508 | 15.56° C | 72% | 1012.5 hPa | - | - | - | - |
| 1777939208 | 15.56° C | 71% | 1012 hPa | - | - | - | - |
| 1777938908 | 16.11° C | 70% | 1012.1 hPa | - | - | - | - |
| 1777938607 | 15.56° C | 72% | 1012.3 hPa | - | - | - | - |
| 1777938308 | 15° C | 79% | 1012.4 hPa | - | - | - | - |
| 1777938008 | 14.44° C | 81% | 1012.8 hPa | - | - | - | - |
| 1777937708 | 15° C | 76% | 1012.7 hPa | - | - | - | - |
| 1777937408 | 16.11° C | 70% | 1012.3 hPa | - | - | - | - |
| 1777937107 | 16.67° C | 69% | 1012.2 hPa | - | - | - | - |
| 1777936807 | 16.11° C | 67% | 1012.9 hPa | - | - | - | - |
* Rain since midnight (hover to see other rain measurements)
** Current wind speed in m/s (hover to see current wind gust speed)